Mayfld Grav Cnty AP, Mayfield, KY

12:18 PM CST on December 06, 2019 (GMT -0600)
Mayfld Grav Cnty AP, Mayfield

Weather History for KM25 - August, 2019

Change the Weather History Date:

Monday, August 26, 2019

  Actual Average (KPAH) Record (KPAH)
Temperature  
Mean Temperature 76 °F -  
Max Temperature 82 °F 88 °F 104 °F (1943)
Min Temperature 69 °F 65 °F 52 °F (1958)
Cooling Degree Days 10    
Growing Degree Days 26 (Base 50)    
Moisture  
Dew Point 72 °F    
Average Humidity 90    
Maximum Humidity 100    
Minimum Humidity 74    
Precipitation  
Precipitation 0.58 in - - ()
Sea Level Pressure  
Sea Level Pressure 29.87 in    
Wind  
Wind Speed 7 mph (South)    
Max Wind Speed 13 mph    
Max Gust Speed 17 mph    
Visibility 10 miles    
Events      
Averages and records for this station are not official NWS values.
T = Trace of Precipitation, MM = Missing Value Source: NWS Daily Summary

Daily Weather History Graph

Daily Weather History Graph

Search for Another Location

Airport or City:

Astronomy

Aug. 26, 2019 Rise Set
Actual Time 6:20 AM CDT 7:31 PM CDT
Civil Twilight 5:53 AM CDT 7:58 PM CDT
Nautical Twilight 5:21 AM CDT 8:29 PM CDT
Astronomical Twilight 4:48 AM CDT 9:03 PM CDT
Moon 1:50 AM CDT (8/26) 4:48 PM CDT (8/26)
Length of Visible Light 14h 04m
Length of Day
13h 10m
Waning Crescent, 19% of the Moon is Illuminated
Aug 26
Waning Crescent
Aug 30
New
Sep 5
First Quarter
Sep 13
Full
Sep 21
Last Quarter

Hourly Weather History & Observations

Time (CDT) Temp. Heat Index Dew Point Humidity Pressure Visibility Wind Dir Wind Speed Gust Speed Precip Events Conditions
12:15 AM 71.6 °F - 69.8 °F 94% 29.89 in 10.0 mi South 6.9 mph - N/A   Mostly Cloudy
12:35 AM 71.6 °F - 69.8 °F 94% 29.89 in 10.0 mi South 8.1 mph - N/A   Overcast
12:55 AM 71.6 °F - 69.8 °F 94% 29.89 in 10.0 mi South 6.9 mph - N/A   Overcast
1:35 AM 71.6 °F - 69.8 °F 94% 29.89 in 10.0 mi South 9.2 mph - N/A   Mostly Cloudy
1:55 AM 71.6 °F - 69.8 °F 94% 29.89 in 10.0 mi SSE 6.9 mph - N/A   Overcast
2:15 AM 71.6 °F - 69.8 °F 94% 29.89 in 10.0 mi South 6.9 mph - N/A   Overcast
2:35 AM 71.6 °F - 69.8 °F 94% 29.89 in 10.0 mi South 6.9 mph - N/A   Overcast
2:55 AM 71.6 °F - 69.8 °F 94% 29.89 in 10.0 mi South 8.1 mph - N/A   Overcast
3:15 AM 71.6 °F - 69.8 °F 94% 29.89 in 10.0 mi South 8.1 mph - N/A   Overcast
3:35 AM 71.6 °F - 69.8 °F 94% 29.88 in 10.0 mi South 6.9 mph - N/A   Overcast
3:55 AM 71.6 °F - 69.8 °F 94% 29.88 in 10.0 mi South 9.2 mph - N/A   Overcast
4:15 AM 71.6 °F - 69.8 °F 94% 29.88 in 10.0 mi South 9.2 mph - N/A   Overcast
4:35 AM 71.6 °F - 69.8 °F 94% 29.88 in 10.0 mi South 8.1 mph - N/A   Overcast
4:55 AM 71.6 °F - 69.8 °F 94% 29.87 in 10.0 mi South 5.8 mph - N/A   Overcast
5:15 AM 71.6 °F - 69.8 °F 94% 29.87 in 10.0 mi South 5.8 mph - N/A   Overcast
5:35 AM 71.6 °F - 69.8 °F 94% 29.87 in 10.0 mi South 4.6 mph - N/A   Overcast
5:55 AM 71.6 °F - 69.8 °F 94% 29.88 in 10.0 mi South 5.8 mph - N/A   Overcast
6:15 AM 71.6 °F - 69.8 °F 94% 29.88 in 10.0 mi South 8.1 mph - N/A   Overcast
6:35 AM 71.6 °F - 69.8 °F 94% 29.88 in 10.0 mi South 6.9 mph - N/A   Overcast
7:15 AM 71.6 °F - 71.6 °F 100% 29.89 in 10.0 mi South 4.6 mph - N/A   Overcast
7:35 AM 71.6 °F - 71.6 °F 100% 29.89 in 10.0 mi South 6.9 mph - N/A   Overcast
7:55 AM 71.6 °F - 71.6 °F 100% 29.89 in 10.0 mi South 6.9 mph - N/A   Overcast
8:15 AM 71.6 °F - 71.6 °F 100% 29.89 in 2.0 mi South 5.8 mph - N/A   Overcast
8:35 AM 71.6 °F - 71.6 °F 100% 29.89 in 10.0 mi South 5.8 mph - N/A   Overcast
8:55 AM 73.4 °F - 71.6 °F 94% 29.89 in 10.0 mi South 6.9 mph - N/A   Overcast
9:15 AM 73.4 °F - 71.6 °F 94% 29.88 in 7.0 mi South 6.9 mph - N/A   Overcast
9:35 AM 73.4 °F - 71.6 °F 94% 29.89 in 10.0 mi South 5.8 mph - N/A   Overcast
9:55 AM 73.4 °F - 71.6 °F 94% 29.88 in 10.0 mi SSE 10.4 mph - N/A   Overcast
10:35 AM 75.2 °F - 71.6 °F 89% 29.89 in 10.0 mi SSW 9.2 mph - N/A   Overcast
10:55 AM 75.2 °F - 71.6 °F 89% 29.89 in 10.0 mi South 9.2 mph - N/A   Overcast
11:15 AM 75.2 °F - 71.6 °F 89% 29.89 in 10.0 mi South 6.9 mph - N/A   Overcast
11:35 AM 75.2 °F - 71.6 °F 89% 29.89 in 10.0 mi South 6.9 mph - N/A   Overcast
11:55 AM 77.0 °F - 71.6 °F 83% 29.89 in 10.0 mi SSW 11.5 mph - N/A   Overcast
12:15 PM 77.0 °F - 73.4 °F 89% 29.88 in 10.0 mi South 5.8 mph - N/A   Overcast
12:35 PM 78.8 °F - 73.4 °F 83% 29.88 in 10.0 mi SSW 9.2 mph - N/A   Overcast
12:55 PM 78.8 °F - 73.4 °F 83% 29.88 in 10.0 mi South 6.9 mph - N/A   Overcast
1:15 PM 78.8 °F - 73.4 °F 83% 29.89 in 10.0 mi South 12.7 mph 16.1 mph N/A   Overcast
1:35 PM 78.8 °F - 73.4 °F 83% 29.88 in 10.0 mi South 6.9 mph - N/A   Overcast
1:55 PM 80.6 °F 85.4 °F 73.4 °F 79% 29.87 in 10.0 mi South 8.1 mph - N/A   Overcast
2:15 PM 82.4 °F 88.2 °F 73.4 °F 74% 29.86 in 10.0 mi South 10.4 mph 17.3 mph N/A   Mostly Cloudy
2:35 PM 80.6 °F 85.4 °F 73.4 °F 79% 29.86 in 10.0 mi SSE 9.2 mph - N/A   Mostly Cloudy
2:55 PM 82.4 °F 88.2 °F 73.4 °F 74% 29.86 in 10.0 mi South 9.2 mph - N/A   Mostly Cloudy
3:35 PM 82.4 °F 88.2 °F 73.4 °F 74% 29.85 in 10.0 mi South 6.9 mph - N/A   Mostly Cloudy
3:55 PM 80.6 °F 85.4 °F 73.4 °F 79% 29.84 in 10.0 mi South 5.8 mph - N/A   Mostly Cloudy
4:35 PM 80.6 °F 85.4 °F 73.4 °F 79% 29.84 in 10.0 mi South 6.9 mph - N/A   Overcast
4:55 PM 82.4 °F 88.2 °F 73.4 °F 74% 29.85 in 10.0 mi South 5.8 mph - N/A   Overcast
5:15 PM 82.4 °F 88.2 °F 73.4 °F 74% 29.84 in 10.0 mi South 9.2 mph - N/A   Mostly Cloudy
5:35 PM 82.4 °F 88.2 °F 73.4 °F 74% 29.85 in 10.0 mi SSW 9.2 mph - N/A   Scattered Clouds
5:55 PM 80.6 °F 85.4 °F 73.4 °F 79% 29.86 in 10.0 mi SSE 4.6 mph - N/A   Overcast
6:15 PM 78.8 °F - 73.4 °F 83% 29.85 in 10.0 mi South 6.9 mph - N/A   Overcast
6:35 PM 78.8 °F - 73.4 °F 83% 29.86 in 10.0 mi South 8.1 mph - N/A   Mostly Cloudy
6:55 PM 78.8 °F - 73.4 °F 83% 29.86 in 10.0 mi South 5.8 mph - N/A   Overcast
7:15 PM 78.8 °F - 73.4 °F 83% 29.86 in 10.0 mi SW 10.4 mph - N/A   Overcast
7:35 PM 71.6 °F - 69.8 °F 94% 29.87 in 2.0 mi SSW 8.1 mph 17.3 mph 0.56 in   Overcast
7:55 PM 71.6 °F - 69.8 °F 94% 29.87 in 10.0 mi SSW 9.2 mph - N/A   Unknown
8:15 PM 71.6 °F - 69.8 °F 94% 29.85 in 10.0 mi SSE 5.8 mph - 0.01 in   Scattered Clouds
8:35 PM 69.8 °F - 69.8 °F 100% 29.82 in 10.0 mi SE 6.9 mph - 0.02 in   Clear
8:55 PM 71.6 °F - 71.6 °F 100% 29.82 in 10.0 mi South 6.9 mph - 0.02 in   Clear
9:15 PM 73.4 °F - 71.6 °F 94% 29.81 in 10.0 mi SSE 3.5 mph - N/A   Clear
9:35 PM 73.4 °F - 73.4 °F 100% 29.80 in 10.0 mi SE 8.1 mph - N/A   Clear
9:55 PM 73.4 °F - 73.4 °F 100% 29.85 in 10.0 mi WSW 8.1 mph - N/A   Scattered Clouds
10:15 PM 73.4 °F - 73.4 °F 100% 29.86 in 10.0 mi South 4.6 mph - N/A   Overcast
10:35 PM 75.2 °F - 73.4 °F 94% 29.86 in 10.0 mi South 5.8 mph - N/A   Overcast
10:55 PM 75.2 °F - 73.4 °F 94% 29.87 in 10.0 mi South 6.9 mph - N/A   Overcast
11:15 PM 75.2 °F - 73.4 °F 94% 29.87 in 10.0 mi SSW 3.5 mph - N/A   Overcast
11:35 PM 75.2 °F - 73.4 °F 94% 29.87 in 10.0 mi Calm Calm - N/A   Overcast